Location: Newark
(40.4667°N, 5.6000°W)
Time: 21:20:57
(UTC+00:00)

Envisat - Visible Passes

Search period start: 23 March 2019 00:00
Search period end: 02 April 2019 00:00
Orbit: 764 x 766 km, 98.2° (Epoch: 22 March)

Date Brightness Start Highest point End Pass type
(mag) Time Alt. Az. Time Alt. Az. Time Alt. Az.
23 Mar 4.7 19:41:24 10° SSW 19:46:00 35° W 19:50:39 10° NNW visible
24 Mar 3.2 19:04:06 10° S 19:09:09 80° WSW 19:14:16 10° NNW visible
25 Mar 5.7 20:08:03 10° SW 20:11:44 20° W 20:15:26 10° NW visible
26 Mar 4.3 19:29:55 10° S 19:34:44 44° W 19:39:37 10° NNW visible
27 Mar 6.2 20:36:18 10° WSW 20:37:33 11° W 20:38:49 10° WNW visible
28 Mar 5.3 19:56:16 10° SSW 20:00:25 25° W 20:04:37 10° NW visible
29 Mar 3.8 19:18:31 10° S 19:23:30 57° W 19:28:30 10° NNW visible
30 Mar 5.9 20:23:32 10° WSW 20:26:13 14° W 20:28:53 10° WNW visible
31 Mar 4.9 19:44:37 10° SSW 19:49:08 32° W 19:53:40 10° NNW visible
01 Apr 3.4 19:07:12 10° S 19:12:15 73° WSW 19:17:21 10° NNW visible
